Regional Weather Roundup
Issued by NWS Goodland, KS

Home | Current Version | Previous Version | Text Only | Print | Product List | Glossary Off
Versions: 1 2 3 4 5 6 7 8 9 10 11 12 13 14 15 16 17 18 19 20 21 22 23 24 25 26 27 28 29 30 31 32 33 34 35 36 37 38 39 40 41 42 43 44 45 46 47 48 49 50

778
ASUS43 KGLD 110908
RWRGLD

GOODLAND FORECAST AREA HOURLY WEATHER ROUNDUP
NATIONAL WEATHER SERVICE GOODLAND KS
200 AM MST THU FEB 11 2016

...OFFICIAL OBSERVATIONS...

CITY           SKY/WX    TMP DP  RH WIND       PRES   REMARKS
GOODLAND KS    CLOUDY    29  23  78 W3        30.16R
HILL CITY KS   CLEAR     31  27  85 N9        30.17R
IMPERIAL NEB   CLOUDY    26  23  88 CALM      30.16R
MCCOOK NEB     CLOUDY    30  26  85 CALM      30.16S
AKRON CO       CLOUDY    33  20  58 W10       30.15F
BURLINGTON CO  CLOUDY    34  22  61 NW9       30.17R
LIMON CO       CLOUDY    20  15  81 CALM      30.21S
$$

...UNOFFICIAL OBSERVATIONS...

CITY           SKY/WX    TMP DP  RH WIND       PRES   REMARKS
COLBY KS       CLEAR     30  28  93 CALM      30.17S
GOVE KS          N/A     34  32  92 MISG        N/A
LENORA KS        N/A     30  32 100 MISG        N/A
NORTON KS      CLEAR     28  23  80 NW5       30.16S
SHARON SPRINGS   N/A     35  27  71 N9          N/A
TRENTON NEB      N/A     28  32 100 MISG        N/A
KIT CARSON CO    N/A     35  24  63 MISG        N/A
YUMA CO          N/A     31  24  76 W7          N/A
$$




USA.gov is the U.S. government's official web portal to all federal, state and local government web resources and services.